Weather History for Stevens Point, WI

Change the Weather History Date:

Wednesday, October 2, 2013

  Actual Average Record
Temperature  
Mean Temperature 52 °F -  
Max Temperature 72 °F 65 °F 90 °F (1976)
Min Temperature 33 °F 42 °F 21 °F (2003)
Degree Days  
Heating Degree Days 12    
Growing Degree Days 2 (Base 50)    
Moisture  
Dew Point 37 °F    
Average Humidity 59    
Maximum Humidity 97    
Minimum Humidity 24    
Precipitation  
Precipitation 0.00 in - - ()
Sea Level Pressure  
Sea Level Pressure 30.04 in    
Wind  
Wind Speed 2 mph (SSE)    
Max Wind Speed 9 mph    
Max Gust Speed -    
Visibility 10 miles    
Events      
Averages and records for this station are not official NWS values.
T = Trace of Precipitation, MM = Missing Value Source: NWS Daily Summary

Daily Weather History Graph

Daily Weather History Graph

Search for Another Location

Airport:

Trip Planner

Search our weather history database for the weather conditions in past years. The results will help you decide how hot, cold, wet, or windy it might be!

Date:

Astronomy

Oct. 02, 2013 Rise Set
Actual Time 6:57 AM CDT 6:36 PM CDT
Civil Twilight 6:28 AM CDT 7:05 PM CDT
Nautical Twilight 5:54 AM CDT 7:39 PM CDT
Astronomical Twilight 5:20 AM CDT 8:13 PM CDT
Moon 4:25 AM CDT (10/2) 5:15 PM CDT (10/2)
Length of Visible Light 12h 36m
Length of Day
11h 38m
Waning Crescent, 6% of the Moon is Illuminated
Oct 2
Waning Crescent
Oct 4
New
Oct 11
First Quarter
Oct 18
Full
Oct 26
Last Quarter

Hourly Weather History & Observations

Time (CDT) Temp. Windchill Dew Point Humidity Pressure Visibility Wind Dir Wind Speed Gust Speed Precip Events Conditions
12:15 AM 53.8 °F - 38.7 °F 57% 29.98 in 10.0 mi Calm Calm - N/A   Clear
12:35 AM 46.8 °F - 38.5 °F 73% 29.99 in 10.0 mi Calm Calm - N/A   Clear
12:55 AM 44.6 °F - 38.5 °F 79% 30.00 in 10.0 mi Calm Calm - N/A   Clear
1:15 AM 42.3 °F - 37.4 °F 83% 30.00 in 10.0 mi Calm Calm - N/A   Clear
1:35 AM 43.0 °F - 37.9 °F 82% 30.01 in 10.0 mi Calm Calm - N/A   Clear
1:55 AM 40.8 °F - 36.7 °F 85% 30.01 in 10.0 mi Calm Calm - N/A   Clear
2:15 AM 41.0 °F - 36.9 °F 85% 30.02 in 10.0 mi Calm Calm - N/A   Clear
2:35 AM 39.6 °F - 36.3 °F 88% 30.02 in 10.0 mi Calm Calm - N/A   Clear
2:55 AM 40.1 °F - 36.9 °F 88% 30.02 in 10.0 mi Calm Calm - N/A   Clear
3:15 AM 36.9 °F - 35.1 °F 93% 30.02 in 10.0 mi Calm Calm - N/A   Clear
3:35 AM 37.4 °F - 35.8 °F 94% 30.03 in 10.0 mi Calm Calm - N/A   Clear
3:55 AM 37.8 °F - 36.0 °F 93% 30.03 in 10.0 mi Calm Calm - N/A   Clear
4:15 AM 37.4 °F - 35.8 °F 94% 30.04 in 10.0 mi Calm Calm - N/A   Clear
4:35 AM 36.5 °F - 35.2 °F 95% 30.04 in 10.0 mi Calm Calm - N/A   Clear
4:55 AM 35.6 °F 32.8 °F 34.2 °F 94% 30.06 in 10.0 mi SSW 3.5 mph - N/A   Clear
5:15 AM 38.1 °F - 35.1 °F 89% 30.06 in 10.0 mi Calm Calm - N/A   Clear
5:35 AM 35.6 °F - 33.6 °F 92% 30.06 in 10.0 mi Calm Calm - N/A   Clear
5:55 AM 35.6 °F - 34.0 °F 94% 30.07 in 10.0 mi Calm Calm - N/A   Clear
6:15 AM 34.5 °F - 33.6 °F 97% 30.07 in 10.0 mi Calm Calm - N/A   Clear
6:35 AM 34.7 °F - 32.9 °F 93% 30.08 in 10.0 mi Calm Calm - N/A   Clear
6:55 AM 33.8 °F - 32.4 °F 94% 30.08 in 10.0 mi Calm Calm - N/A   Clear
7:15 AM 34.0 °F - 32.4 °F 94% 30.09 in 10.0 mi Calm Calm - N/A   Clear
7:35 AM 34.9 °F - 33.1 °F 93% 30.09 in 10.0 mi Calm Calm - N/A   Clear
7:55 AM 36.7 °F - 34.9 °F 93% 30.10 in 10.0 mi Calm Calm - N/A   Clear
8:15 AM 40.5 °F - 37.8 °F 90% 30.10 in 10.0 mi Calm Calm - N/A   Clear
8:35 AM 44.6 °F - 39.6 °F 82% 30.10 in 10.0 mi Calm Calm - N/A   Clear
8:55 AM 48.2 °F - 41.2 °F 77% 30.11 in 10.0 mi Calm Calm - N/A   Clear
9:15 AM 51.8 °F - 42.1 °F 69% 30.11 in 10.0 mi Calm Calm - N/A   Clear
9:35 AM 54.3 °F - 41.5 °F 62% 30.12 in 10.0 mi Calm Calm - N/A   Clear
9:55 AM 57.0 °F - 41.5 °F 56% 30.12 in 10.0 mi Calm Calm - N/A   Clear
10:15 AM 58.6 °F - 41.2 °F 52% 30.12 in 10.0 mi Calm Calm - N/A   Clear
10:35 AM 61.5 °F - 40.5 °F 46% 30.12 in 10.0 mi Calm Calm - N/A   Clear
10:55 AM 63.3 °F - 40.5 °F 43% 30.12 in 10.0 mi Calm Calm - N/A   Clear
11:15 AM 64.8 °F - 37.8 °F 37% 30.12 in 10.0 mi SSE 4.6 mph - N/A   Clear
11:35 AM 65.8 °F - 35.4 °F 32% 30.11 in 10.0 mi Calm Calm - N/A   Clear
11:55 AM 67.5 °F - 34.2 °F 29% 30.11 in 10.0 mi SSE 5.8 mph - N/A   Clear
12:15 PM 68.0 °F - 35.2 °F 30% 30.10 in 10.0 mi South 3.5 mph - N/A   Clear
12:35 PM 67.8 °F - 34.2 °F 29% 30.10 in 10.0 mi South 4.6 mph - N/A   Clear
12:55 PM 68.9 °F - 34.7 °F 28% 30.09 in 10.0 mi SSW 6.9 mph - N/A   Clear
1:15 PM 69.4 °F - 33.8 °F 27% 30.08 in 10.0 mi SSW 9.2 mph - N/A   Clear
1:35 PM 69.8 °F - 33.3 °F 26% 30.07 in 10.0 mi SW 8.1 mph - N/A   Clear
1:55 PM 70.7 °F - 33.8 °F 26% 30.07 in 10.0 mi SSW 3.5 mph - N/A   Clear
2:15 PM 71.2 °F - 34.7 °F 26% 30.06 in 10.0 mi South 8.1 mph - N/A   Clear
2:35 PM 71.4 °F - 34.0 °F 25% 30.05 in 10.0 mi SSW 5.8 mph - N/A   Clear
2:55 PM 72.0 °F - 34.5 °F 25% 30.05 in 10.0 mi South 8.1 mph - N/A   Clear
3:15 PM 72.1 °F - 33.6 °F 24% 30.04 in 10.0 mi SSW 5.8 mph - N/A   Clear
3:55 PM 72.0 °F - 33.6 °F 24% 30.02 in 10.0 mi South 3.5 mph - N/A   Clear
4:15 PM 72.5 °F - 36.7 °F 27% 30.01 in 10.0 mi South 5.8 mph - N/A   Clear
4:35 PM 71.8 °F - 35.6 °F 27% 30.01 in 10.0 mi South 5.8 mph - N/A   Clear
4:55 PM 70.0 °F - 35.4 °F 28% 30.01 in 10.0 mi SSE 6.9 mph - N/A   Clear
5:15 PM 69.6 °F - 36.9 °F 30% 30.01 in 10.0 mi SSE 4.6 mph - N/A   Clear
5:35 PM 69.1 °F - 37.4 °F 31% 30.00 in 10.0 mi SE 5.8 mph - N/A   Clear
5:55 PM 67.3 °F - 37.8 °F 34% 30.01 in 10.0 mi SSE 3.5 mph - N/A   Clear
6:15 PM 66.0 °F - 41.0 °F 40% 30.00 in 10.0 mi SE 3.5 mph - N/A   Clear
6:35 PM 64.9 °F - 40.3 °F 40% 30.00 in 10.0 mi SE 3.5 mph - N/A   Clear
6:55 PM 63.9 °F - 39.4 °F 41% 30.01 in 10.0 mi Calm Calm - N/A   Clear
7:15 PM 61.0 °F - 40.8 °F 47% 30.01 in 10.0 mi SE 3.5 mph - N/A   Clear
7:35 PM 57.7 °F - 42.6 °F 57% 30.01 in 10.0 mi Calm Calm - N/A   Mostly Cloudy
7:55 PM 57.2 °F - 44.2 °F 62% 30.01 in 10.0 mi ESE 3.5 mph - N/A   Overcast
8:15 PM 58.1 °F - 42.1 °F 55% 30.01 in 10.0 mi ESE 4.6 mph - N/A   Mostly Cloudy
8:35 PM 58.5 °F - 39.9 °F 50% 30.00 in 10.0 mi ESE 6.9 mph - N/A   Scattered Clouds
8:55 PM 58.8 °F - 39.6 °F 49% 30.00 in 10.0 mi ESE 8.1 mph - N/A   Clear
9:15 PM 57.4 °F - 40.3 °F 53% 29.99 in 10.0 mi East 4.6 mph - N/A   Clear
9:35 PM 57.2 °F - 40.1 °F 53% 29.98 in 10.0 mi ESE 6.9 mph - N/A   Clear
9:55 PM 57.4 °F - 40.1 °F 53% 29.98 in 10.0 mi SE 5.8 mph - N/A   Clear
10:15 PM 57.7 °F - 41.0 °F 54% 29.98 in 10.0 mi ESE 5.8 mph - N/A   Clear
10:35 PM 57.4 °F - 41.2 °F 55% 29.97 in 10.0 mi SE 6.9 mph - N/A   Clear
10:55 PM 58.1 °F - 41.0 °F 53% 29.98 in 10.0 mi SE 4.6 mph - N/A   Mostly Cloudy
11:15 PM 57.9 °F - 41.0 °F 53% 29.98 in 10.0 mi SE 5.8 mph - N/A   Mostly Cloudy
11:35 PM 58.1 °F - 39.9 °F 51% 29.97 in 10.0 mi SE 5.8 mph - N/A   Mostly Cloudy
11:55 PM 57.9 °F - 37.8 °F 47% 29.96 in 10.0 mi SE 8.1 mph - N/A   Scattered Clouds